Location: Newark
(13.8625°N, 100.5144°E)
Time: 12:13:48
(UTC+00:00)

Envisat - Pass Details

Date: 02 April 2020
Orbit: 764 x 766 km, 98.1° (Epoch: 02 June)

Event Time Altitude Azimuth Distance (km) Brightness Sun altitude
Rises 11:52:41 0° 188° (S) 3,218 6.2 -6.3°
Reaches altitude 10° 11:55:12 10° 198° (SSW) 2,294 5.6 -6.9°
Maximum altitude 11:59:40 32° 260° (W) 1,294 5.1 -8.0°
Drops below altitude 10° 12:04:09 10° 322° (NW) 2,296 6.2 -9.1°
Sets 12:06:41 0° 333° (NNW) 3,223 6.8 -9.7°
